| time (UTC) | temp C | wind direction | speed KPH | gust KPH | rain 1hr cm | rain 24hr cm | rain mn cm | humidity % | barometer mb |
| 20260504001924 | 19 | 205 | 3.2 | 9.7 | 0.00 | 0.00 | 0.00 | 30 | 1006.8 |
| 20260504001422 | 19 | 241 | 4.8 | 12.9 | 0.00 | 0.00 | 0.00 | 30 | 1006.7 |
| 20260504000918 | 20 | 224 | 3.2 | 9.7 | 0.00 | 0.00 | 0.00 | 29 | 1007.0 |
| 20260504000416 | 19 | 205 | 4.8 | 9.7 | 0.00 | 0.00 | 0.00 | 29 | 1007.1 |
| 20260503235913 | 20 | 204 | 12.9 | 14.5 | 0.00 | 0.00 | 0.00 | 28 | 1007.0 |
| 20260503235410 | 20 | 190 | 6.4 | 12.9 | 0.00 | 0.00 | 0.00 | 28 | 1007.1 |
| 20260503234908 | 20 | 161 | 3.2 | 16.1 | 0.00 | 0.00 | 0.00 | 27 | 1007.0 |
| 20260503234405 | 20 | 230 | 6.4 | 16.1 | 0.00 | 0.00 | 0.00 | 28 | 1006.8 |
| 20260503233903 | 20 | 229 | 8.0 | 14.5 | 0.00 | 0.00 | 0.00 | 27 | 1007.0 |
| 20260503233359 | 20 | 231 | 1.6 | 14.5 | 0.00 | 0.00 | 0.00 | 27 | 1006.8 |
| 20260503232855 | 20 | 162 | 6.4 | 11.3 | 0.00 | 0.00 | 0.00 | 28 | 1006.9 |
| 20260503232353 | 20 | 231 | 8.0 | 11.3 | 0.00 | 0.00 | 0.00 | 27 | 1007.0 |
| 20260503231851 | 20 | 244 | 9.7 | 14.5 | 0.00 | 0.00 | 0.00 | 27 | 1007.3 |
| 20260503231347 | 20 | 229 | 4.8 | 14.5 | 0.00 | 0.00 | 0.00 | 27 | 1007.1 |
| 20260503230843 | 20 | 259 | 3.2 | 12.9 | 0.00 | 0.00 | 0.00 | 26 | 1007.0 |
| 20260503230340 | 20 | 197 | 3.2 | 14.5 | 0.00 | 0.00 | 0.00 | 26 | 1007.1 |
| 20260503225839 | 20 | 259 | 6.4 | 9.7 | 0.00 | 0.00 | 0.00 | 26 | 1007.2 |
| 20260503225334 | 20 | 232 | 8.0 | 24.1 | 0.00 | 0.00 | 0.00 | 26 | 1007.2 |
| 20260503224830 | 20 | 217 | 14.5 | 20.9 | 0.00 | 0.00 | 0.00 | 27 | 1007.2 |
| 20260503224328 | 20 | 231 | 6.4 | 11.3 | 0.00 | 0.00 | 0.00 | 27 | 1007.1 |
| 20260503223826 | 21 | 155 | 6.4 | 11.3 | 0.00 | 0.00 | 0.00 | 26 | 1007.3 |
| 20260503223323 | 21 | 129 | 1.6 | 3.2 | 0.00 | 0.00 | 0.00 | 26 | 1007.3 |
| 20260503222818 | 21 | 266 | 3.2 | 8.0 | 0.00 | 0.00 | 0.00 | 27 | 1007.3 |
| 20260503222317 | 20 | 232 | 8.0 | 11.3 | 0.00 | 0.00 | 0.00 | 27 | 1007.5 |
| 20260503221815 | 20 | 160 | 1.6 | 16.1 | 0.00 | 0.00 | 0.00 | 27 | 1007.2 |
| 20260503221313 | 20 | 184 | 6.4 | 17.7 | 0.00 | 0.00 | 0.00 | 26 | 1007.5 |
| 20260503220809 | 21 | 226 | 8.0 | 20.9 | 0.00 | 0.00 | 0.00 | 26 | 1007.5 |
| 20260503220306 | 20 | 215 | 9.7 | 14.5 | 0.00 | 0.00 | 0.00 | 26 | 1007.5 |
| 20260503215803 | 20 | 235 | 4.8 | 12.9 | 0.00 | 0.00 | 0.00 | 27 | 1007.5 |
| 20260503215259 | 20 | 255 | 11.3 | 16.1 | 0.00 | 0.00 | 0.00 | 26 | 1007.6 |
| 20260503214757 | 20 | 158 | 1.6 | 12.9 | 0.00 | 0.00 | 0.00 | 26 | 1007.7 |
| 20260503214254 | 20 | 244 | 3.2 | 22.5 | 0.00 | 0.00 | 0.00 | 26 | 1007.8 |
| 20260503213752 | 21 | 267 | 4.8 | 9.7 | 0.00 | 0.00 | 0.00 | 25 | 1007.6 |
| 20260503213249 | 20 | 218 | 1.6 | 12.9 | 0.00 | 0.00 | 0.00 | 25 | 1007.5 |
| 20260503212746 | 20 | 246 | 6.4 | 20.9 | 0.00 | 0.00 | 0.00 | 27 | 1007.7 |
| 20260503212244 | 20 | 205 | 12.9 | 20.9 | 0.00 | 0.00 | 0.00 | 25 | 1007.4 |
| 20260503211741 | 20 | 176 | 1.6 | 12.9 | 0.00 | 0.00 | 0.00 | 26 | 1007.4 |
| 20260503211238 | 20 | 242 | 12.9 | 17.7 | 0.00 | 0.00 | 0.00 | 26 | 1007.8 |
| 20260503210733 | 20 | 199 | 8.0 | 20.9 | 0.00 | 0.00 | 0.00 | 26 | 1007.8 |
| 20260503210231 | 21 | 190 | 0.0 | 11.3 | 0.00 | 0.00 | 0.00 | 29 | 1007.8 |
| 20260503205726 | 20 | 172 | 3.2 | 14.5 | 0.00 | 0.00 | 0.00 | 26 | 1008.0 |
| 20260503205222 | 20 | 92 | 3.2 | 16.1 | 0.00 | 0.00 | 0.00 | 25 | 1007.8 |
| 20260503204718 | 21 | 215 | 9.7 | 12.9 | 0.00 | 0.00 | 0.00 | 26 | 1007.7 |
| 20260503204217 | 20 | 266 | 3.2 | 9.7 | 0.00 | 0.00 | 0.00 | 30 | 1007.8 |
| 20260503203713 | 20 | 152 | 6.4 | 22.5 | 0.00 | 0.00 | 0.00 | 29 | 1007.8 |
| 20260503203211 | 20 | 276 | 8.0 | 14.5 | 0.00 | 0.00 | 0.00 | 29 | 1007.9 |
| 20260503202708 | 20 | 196 | 4.8 | 14.5 | 0.00 | 0.00 | 0.00 | 28 | 1007.7 |
| 20260503202206 | 20 | 153 | 3.2 | 11.3 | 0.00 | 0.00 | 0.00 | 30 | 1008.0 |
| 20260503201704 | 20 | 204 | 3.2 | 20.9 | 0.00 | 0.00 | 0.00 | 32 | 1008.1 |
| 20260503201201 | 20 | 247 | 9.7 | 20.9 | 0.00 | 0.00 | 0.00 | 31 | 1008.0 |
| 20260503200657 | 20 | 248 | 4.8 | 20.9 | 0.00 | 0.00 | 0.00 | 29 | 1008.0 |
| 20260503200153 | 20 | 216 | 9.7 | 24.1 | 0.00 | 0.00 | 0.00 | 31 | 1008.1 |
| 20260503195650 | 20 | 237 | 4.8 | 17.7 | 0.00 | 0.00 | 0.00 | 30 | 1008.1 |
| 20260503195147 | 20 | 253 | 12.9 | 20.9 | 0.00 | 0.00 | 0.00 | 30 | 1008.1 |
| 20260503194644 | 20 | 203 | 14.5 | 27.4 | 0.00 | 0.00 | 0.00 | 30 | 1008.2 |
| 20260503194140 | 20 | 231 | 4.8 | 16.1 | 0.00 | 0.00 | 0.00 | 33 | 1008.1 |
| 20260503193637 | 21 | 238 | 9.7 | 12.9 | 0.00 | 0.00 | 0.00 | 31 | 1008.2 |
| 20260503193132 | 20 | 161 | 8.0 | 14.5 | 0.00 | 0.00 | 0.00 | 32 | 1008.3 |
| 20260503192628 | 20 | 192 | 3.2 | 16.1 | 0.00 | 0.00 | 0.00 | 33 | 1008.2 |
| 20260503192124 | 20 | 193 | 6.4 | 14.5 | 0.00 | 0.00 | 0.00 | 35 | 1008.2 |
| 20260503191621 | 20 | 264 | 9.7 | 22.5 | 0.00 | 0.00 | 0.00 | 34 | 1008.2 |
| 20260503191118 | 20 | 150 | 9.7 | 16.1 | 0.00 | 0.00 | 0.00 | 33 | 1008.3 |
| 20260503190615 | 20 | 188 | 4.8 | 11.3 | 0.00 | 0.00 | 0.00 | 36 | 1008.2 |
| 20260503190112 | 20 | 188 | 3.2 | 4.8 | 0.00 | 0.00 | 0.00 | 35 | 1008.4 |
| 20260503185608 | 20 | 292 | 8.0 | 16.1 | 0.00 | 0.00 | 0.00 | 34 | 1008.3 |
| 20260503185108 | 20 | 229 | 11.3 | 17.7 | 0.00 | 0.00 | 0.00 | 33 | 1008.7 |
| 20260503184604 | 20 | 240 | 20.9 | 24.1 | 0.00 | 0.00 | 0.00 | 34 | 1008.6 |
| 20260503184101 | 20 | 177 | 9.7 | 14.5 | 0.00 | 0.00 | 0.00 | 37 | 1008.6 |
| 20260503183557 | 20 | 208 | 6.4 | 14.5 | 0.00 | 0.00 | 0.00 | 39 | 1008.6 |
| 20260503183055 | 20 | 246 | 9.7 | 14.5 | 0.00 | 0.00 | 0.00 | 39 | 1008.8 |
| 20260503182553 | 20 | 200 | 11.3 | 12.9 | 0.00 | 0.00 | 0.00 | 39 | 1008.6 |
| 20260503182051 | 20 | 247 | 6.4 | 12.9 | 0.00 | 0.00 | 0.00 | 38 | 1008.4 |
| 20260503181547 | 20 | 167 | 1.6 | 9.7 | 0.00 | 0.00 | 0.00 | 38 | 1008.8 |
| 20260503181044 | 20 | 237 | 8.0 | 9.7 | 0.00 | 0.00 | 0.00 | 37 | 1008.8 |
| 20260503180541 | 20 | 141 | 3.2 | 8.0 | 0.00 | 0.00 | 0.00 | 38 | 1008.9 |
| 20260503180038 | 19 | 205 | 4.8 | 11.3 | 0.00 | 0.00 | 0.00 | 38 | 1008.8 |
| 20260503175536 | 20 | 303 | 12.9 | 17.7 | 0.00 | 0.00 | 0.00 | 39 | 1008.9 |
| 20260503175033 | 20 | 311 | 12.9 | 16.1 | 0.00 | 0.00 | 0.00 | 39 | 1008.9 |
| 20260503174530 | 20 | 253 | 3.2 | 8.0 | 0.00 | 0.00 | 0.00 | 41 | 1008.9 |
| 20260503174026 | 20 | 291 | 8.0 | 11.3 | 0.00 | 0.00 | 0.00 | 41 | 1008.8 |
| 20260503173521 | 20 | 160 | 9.7 | 14.5 | 0.00 | 0.00 | 0.00 | 41 | 1008.8 |
| 20260503173017 | 20 | 215 | 6.4 | 11.3 | 0.00 | 0.00 | 0.00 | 42 | 1009.0 |
| 20260503172516 | 19 | 169 | 4.8 | 22.5 | 0.00 | 0.00 | 0.00 | 41 | 1009.0 |
| 20260503172012 | 19 | 34 | 3.2 | 16.1 | 0.00 | 0.00 | 0.00 | 41 | 1008.9 |
| 20260503171509 | 19 | 225 | 12.9 | 20.9 | 0.00 | 0.00 | 0.00 | 41 | 1009.0 |
| 20260503171006 | 19 | 262 | 12.9 | 16.1 | 0.00 | 0.00 | 0.00 | 41 | 1009.0 |
| 20260503170503 | 18 | 286 | 6.4 | 9.7 | 0.00 | 0.00 | 0.00 | 41 | 1009.1 |
| 20260503150855 | 16 | 276 | 4.8 | 17.7 | 0.00 | 0.00 | 0.00 | 48 | 1008.7 |
| 20260503150351 | 16 | 284 | 9.7 | 17.7 | 0.00 | 0.00 | 0.00 | 48 | 1008.8 |
| 20260503140315 | 15 | 210 | 6.4 | 11.3 | 0.00 | 0.00 | 0.00 | 51 | 1008.4 |
| 20260503131245 | 13 | 203 | 6.4 | 9.7 | 0.00 | 0.00 | 0.00 | 53 | 1008.0 |
| 20260503130742 | 13 | 226 | 8.0 | 9.7 | 0.00 | 0.00 | 0.00 | 53 | 1007.9 |
| 20260503130239 | 13 | 256 | 1.6 | 4.8 | 0.00 | 0.00 | 0.00 | 53 | 1008.1 |
| 20260503120205 | 12 | 80 | 0.0 | 1.6 | 0.00 | 0.00 | 0.00 | 55 | 1007.5 |
| 20260503110633 | 11 | 112 | 1.6 | 4.8 | 0.00 | 0.00 | 0.00 | 56 | 1006.9 |
| 20260503110130 | 11 | 148 | 1.6 | 8.0 | 0.00 | 0.00 | 0.00 | 55 | 1007.0 |
| 20260503081434 | 13 | 65 | 1.6 | 1.6 | 0.00 | 0.00 | 0.00 | 57 | 1008.1 |
| 20260503080931 | 13 | 97 | 1.6 | 4.8 | 0.00 | 0.00 | 0.00 | 56 | 1007.9 |
| 20260503080428 | 13 | 112 | 3.2 | 3.2 | 0.00 | 0.00 | 0.00 | 56 | 1008.0 |
| 20260503072904 | 13 | 125 | 3.2 | 11.3 | 0.00 | 0.00 | 0.00 | 55 | 1008.4 |
| 20260503072401 | 13 | 72 | 3.2 | 11.3 | 0.00 | 0.00 | 0.00 | 55 | 1008.7 |
| 20260503071858 | 13 | 102 | 1.6 | 8.0 | 0.00 | 0.00 | 0.00 | 56 | 1008.8 |
| 20260503071355 | 13 | 106 | 1.6 | 9.7 | 0.00 | 0.00 | 0.00 | 56 | 1008.9 |
| 20260503070851 | 13 | 139 | 3.2 | 4.8 | 0.00 | 0.00 | 0.00 | 56 | 1008.9 |
| 20260503070349 | 13 | 106 | 1.6 | 8.0 | 0.00 | 0.00 | 0.00 | 56 | 1009.0 |
| 20260503060309 | 13 | 134 | 3.2 | 11.3 | 0.00 | 0.00 | 0.00 | 51 | 1010.1 |
| 20260503054755 | 13 | 134 | 4.8 | 11.3 | 0.00 | 0.00 | 0.00 | 51 | 1010.3 |
| 20260503054252 | 13 | 125 | 3.2 | 8.0 | 0.00 | 0.00 | 0.00 | 51 | 1010.3 |
| 20260503053749 | 13 | 154 | 3.2 | 8.0 | 0.00 | 0.00 | 0.00 | 50 | 1010.5 |
| 20260503053243 | 14 | 116 | 1.6 | 4.8 | 0.00 | 0.00 | 0.00 | 50 | 1010.5 |
| 20260503052738 | 14 | 44 | 1.6 | 9.7 | 0.00 | 0.00 | 0.00 | 50 | 1010.4 |
| 20260503052236 | 14 | 92 | 4.8 | 9.7 | 0.00 | 0.00 | 0.00 | 49 | 1010.5 |
| 20260503051730 | 14 | 101 | 4.8 | 9.7 | 0.00 | 0.00 | 0.00 | 50 | 1010.4 |
| 20260503051228 | 14 | 97 | 6.4 | 11.3 | 0.00 | 0.00 | 0.00 | 49 | 1010.5 |
| 20260503050725 | 14 | 95 | 3.2 | 8.0 | 0.00 | 0.00 | 0.00 | 50 | 1010.6 |
| 20260503050221 | 14 | 103 | 6.4 | 9.7 | 0.00 | 0.00 | 0.00 | 49 | 1010.5 |
| 20260503045719 | 14 | 116 | 4.8 | 4.8 | 0.00 | 0.00 | 0.00 | 49 | 1010.6 |
| 20260503045216 | 14 | 122 | 1.6 | 4.8 | 0.00 | 0.00 | 0.00 | 50 | 1010.5 |
| 20260503044712 | 14 | 97 | 1.6 | 4.8 | 0.00 | 0.00 | 0.00 | 51 | 1010.7 |
| 20260503044210 | 14 | 121 | 3.2 | 4.8 | 0.00 | 0.00 | 0.00 | 49 | 1010.7 |
| 20260503043707 | 15 | 101 | 0.0 | 9.7 | 0.00 | 0.00 | 0.00 | 50 | 1010.8 |
| 20260503043205 | 15 | 121 | 3.2 | 3.2 | 0.00 | 0.00 | 0.00 | 49 | 1011.0 |
| 20260503042700 | 15 | 116 | 0.0 | 3.2 | 0.00 | 0.00 | 0.00 | 48 | 1011.0 |
| 20260503042156 | 15 | 114 | 6.4 | 8.0 | 0.00 | 0.00 | 0.00 | 47 | 1011.0 |
| 20260503041652 | 15 | 97 | 3.2 | 3.2 | 0.00 | 0.00 | 0.00 | 46 | 1011.3 |
| 20260503041150 | 15 | 106 | 1.6 | 4.8 | 0.00 | 0.00 | 0.00 | 46 | 1011.4 |
| 20260503040648 | 15 | 112 | 6.4 | 8.0 | 0.00 | 0.00 | 0.00 | 46 | 1011.4 |
| 20260503040145 | 15 | 133 | 1.6 | 11.3 | 0.00 | 0.00 | 0.00 | 46 | 1011.3 |
| 20260503035642 | 15 | 134 | 1.6 | 1.6 | 0.00 | 0.00 | 0.00 | 46 | 1011.3 |
| 20260503035139 | 15 | 136 | 1.6 | 4.8 | 0.00 | 0.00 | 0.00 | 45 | 1011.5 |
| 20260503034636 | 15 | 134 | 1.6 | 3.2 | 0.00 | 0.00 | 0.00 | 46 | 1011.8 |
| 20260503034133 | 15 | 146 | 1.6 | 4.8 | 0.00 | 0.00 | 0.00 | 45 | 1011.5 |
| 20260503033630 | 15 | 144 | 1.6 | 3.2 | 0.00 | 0.00 | 0.00 | 45 | 1011.7 |
| 20260503033128 | 15 | 110 | 1.6 | 4.8 | 0.00 | 0.00 | 0.00 | 45 | 1012.0 |
| 20260503032627 | 15 | 115 | 3.2 | 9.7 | 0.00 | 0.00 | 0.00 | 44 | 1011.8 |
| 20260503032125 | 15 | 105 | 0.0 | 8.0 | 0.00 | 0.00 | 0.00 | 45 | 1012.0 |
| 20260503031622 | 15 | 167 | 4.8 | 8.0 | 0.00 | 0.00 | 0.00 | 45 | 1012.2 |
| 20260503031119 | 15 | 162 | 3.2 | 8.0 | 0.00 | 0.00 | 0.00 | 45 | 1012.2 |
| 20260503030615 | 16 | 142 | 4.8 | 8.0 | 0.00 | 0.00 | 0.00 | 44 | 1012.5 |
| 20260503030112 | 15 | 163 | 1.6 | 4.8 | 0.00 | 0.00 | 0.00 | 45 | 1012.6 |
| 20260503025609 | 16 | 161 | 3.2 | 3.2 | 0.00 | 0.00 | 0.00 | 44 | 1012.5 |
| 20260503025107 | 16 | 137 | 4.8 | 8.0 | 0.00 | 0.00 | 0.00 | 44 | 1012.6 |
| 20260503024603 | 16 | 136 | 1.6 | 8.0 | 0.00 | 0.00 | 0.00 | 43 | 1012.9 |
| 20260503024100 | 16 | 195 | 8.0 | 11.3 | 0.00 | 0.00 | 0.00 | 43 | 1013.0 |
| 20260503023556 | 16 | 151 | 6.4 | 17.7 | 0.00 | 0.00 | 0.00 | 43 | 1013.0 |
| 20260503023054 | 16 | 180 | 8.0 | 11.3 | 0.00 | 0.00 | 0.00 | 43 | 1013.4 |
| 20260503022550 | 16 | 196 | 3.2 | 4.8 | 0.00 | 0.00 | 0.00 | 43 | 1013.1 |
| 20260503022044 | 16 | 226 | 3.2 | 8.0 | 0.00 | 0.00 | 0.00 | 42 | 1013.3 |
| 20260503021542 | 16 | 241 | 8.0 | 20.9 | 0.00 | 0.00 | 0.00 | 41 | 1013.3 |
| 20260503021038 | 16 | 166 | 6.4 | 14.5 | 0.00 | 0.00 | 0.00 | 42 | 1013.2 |
| 20260503020536 | 16 | 169 | 3.2 | 3.2 | 0.00 | 0.00 | 0.00 | 43 | 1013.2 |
| 20260503020033 | 16 | 232 | 3.2 | 9.7 | 0.00 | 0.00 | 0.00 | 43 | 1013.0 |
| 20260503015529 | 16 | 231 | 1.6 | 4.8 | 0.00 | 0.00 | 0.00 | 43 | 1013.0 |
| 20260503015027 | 16 | 220 | 3.2 | 8.0 | 0.00 | 0.00 | 0.00 | 42 | 1013.0 |
| 20260503014522 | 16 | 230 | 6.4 | 12.9 | 0.00 | 0.00 | 0.00 | 42 | 1012.9 |
| 20260503014021 | 16 | 226 | 3.2 | 16.1 | 0.00 | 0.00 | 0.00 | 41 | 1013.0 |
| 20260503013517 | 16 | 230 | 3.2 | 9.7 | 0.00 | 0.00 | 0.00 | 43 | 1012.9 |
| 20260503013015 | 16 | 182 | 4.8 | 12.9 | 0.00 | 0.00 | 0.00 | 43 | 1012.9 |
| 20260503012513 | 16 | 217 | 1.6 | 9.7 | 0.00 | 0.00 | 0.00 | 43 | 1013.0 |
| 20260503012009 | 16 | 237 | 4.8 | 9.7 | 0.00 | 0.00 | 0.00 | 44 | 1013.3 |
| 20260503011506 | 16 | 174 | 4.8 | 11.3 | 0.00 | 0.00 | 0.00 | 43 | 1013.2 |
| 20260503011003 | 16 | 189 | 8.0 | 11.3 | 0.00 | 0.00 | 0.00 | 43 | 1012.9 |
| 20260503010459 | 16 | 223 | 8.0 | 11.3 | 0.00 | 0.00 | 0.00 | 43 | 1013.1 |
| 20260503005956 | 16 | 177 | 6.4 | 14.5 | 0.00 | 0.00 | 0.00 | 43 | 1013.1 |
| 20260503005453 | 16 | 159 | 0.0 | 4.8 | 0.00 | 0.00 | 0.00 | 44 | 1013.2 |
| 20260503004950 | 16 | 126 | 1.6 | 16.1 | 0.00 | 0.00 | 0.00 | 44 | 1013.3 |
| 20260503004447 | 16 | 129 | 1.6 | 4.8 | 0.00 | 0.00 | 0.00 | 44 | 1013.2 |
| 20260503003945 | 16 | 155 | 3.2 | 9.7 | 0.00 | 0.00 | 0.00 | 43 | 1013.4 |
| 20260503003441 | 16 | 202 | 6.4 | 12.9 | 0.00 | 0.00 | 0.00 | 43 | 1013.4 |
| 20260503002938 | 16 | 226 | 6.4 | 12.9 | 0.00 | 0.00 | 0.00 | 43 | 1013.5 |
| 20260503002435 | 16 | 191 | 4.8 | 12.9 | 0.00 | 0.00 | 0.00 | 43 | 1013.4 |